This is the latest recevied weather packets stored in our database for station/object KD2SIG. If no packets are shown the sender has not sent any weather packets the latest 10 day(s).
| Time | Temp. | Humidity | Pressure | Rain* | Wind** | Luminosity | Snow |
|---|---|---|---|---|---|---|---|
| 1777640211 | 7.22° C | 67% | 1014.2 hPa | 0 mm | - | 442 W/m² | - |
| 1777639908 | 7.22° C | 66% | 1014.1 hPa | 0 mm | - | 422 W/m² | - |
| 1777639605 | 7.78° C | 69% | 1014.2 hPa | 0 mm | - | 393 W/m² | - |
| 1777639302 | 6.67° C | 70% | 1014.1 hPa | 0 mm | - | 366 W/m² | - |
| 1777638998 | 6.67° C | 73% | 1014 hPa | 0 mm | - | 366 W/m² | - |
| 1777638694 | 6.67° C | 75% | 1014 hPa | 0 mm | - | 344 W/m² | - |
| 1777638391 | 6.11° C | 77% | 1014.1 hPa | 0 mm | - | 326 W/m² | - |
| 1777638087 | 6.11° C | 80% | 1014 hPa | 0 mm | - | 296 W/m² | - |
| 1777637783 | 6.11° C | 83% | 1013.9 hPa | 0 mm | - | 67 W/m² | - |
| 1777637480 | 6.11° C | 86% | 1014 hPa | 0 mm | - | 287 W/m² | - |
| 1777637177 | 5.56° C | 88% | 1014.1 hPa | 0 mm | - | 261 W/m² | - |
| 1777636874 | 5.56° C | 89% | 1014.1 hPa | 0 mm | - | 232 W/m² | - |
| 1777636570 | 5° C | 91% | 1014.2 hPa | 0 mm | - | 225 W/m² | - |
| 1777636266 | 5.56° C | 92% | 1014 hPa | 0 mm | - | 204 W/m² | - |
| 1777635966 | 5° C | 93% | 1014.1 hPa | 0 mm | - | 52 W/m² | - |
| 1777635662 | 5° C | 94% | 1014.1 hPa | 0 mm | - | 49 W/m² | - |
| 1777635359 | 4.44° C | 94% | 1014 hPa | 0 mm | - | 47 W/m² | - |
| 1777635056 | 4.44° C | 96% | 1014.1 hPa | 0 mm | - | 50 W/m² | - |
| 1777634752 | 3.89° C | 96% | 1014 hPa | 0 mm | - | 44 W/m² | - |
| 1777634449 | 3.33° C | 97% | 1014.2 hPa | 0 mm | - | 112 W/m² | - |
| 1777634146 | 2.22° C | 96% | 1013.8 hPa | 0 mm | - | 58 W/m² | - |
| 1777633842 | 1.67° C | 96% | 1014 hPa | 0 mm | - | 49 W/m² | - |
| 1777633540 | 1.67° C | 96% | 1013.9 hPa | 0 mm | - | 39 W/m² | - |
| 1777633238 | 1.67° C | 96% | 1013.9 hPa | 0 mm | - | 37 W/m² | - |
| 1777632935 | 1.67° C | 97% | 1014.1 hPa | 0 mm | - | 37 W/m² | - |
* Rain latest hour (hover to see other rain measurements)
** Current wind speed in m/s (hover to see current wind gust speed)